Vorticity
12 5 -2 15 13 -3 -11 -2 -3 -4 3 4 10 8 9 7 4 4 10 11 5 11 18 20 9 7 3 -2 -1 -1 1 0 3 11 14 5 10 9 8 8 10 7 8 15
5 -1 9 8 3 6 4 3 7 14 29 20 12 10 -1 5 11 11 10 9 9 10 11 15 22 12 6 5 1 -0 1 4 -1 18 8 8 9 12 13 8 10 -6 4 11
6 -3 15 30 19 12 10 8 6 -0 2 14 28 41 68 30 18 26 27 23 21 13 13 14 18 19 14 7 5 4 3 4 2 16 7 4 6 8 11 10 7 -2 -3 15
16 16 0 3 5 7 5 16 16 16 12 3 -7 -11 6 10 17 9 7 14 18 29 30 24 17 21 16 13 11 7 5 1 4 18 4 7 7 12 20 10 6 -0 -4 8
-2 6 23 18 19 18 -1 6 11 6 9 15 37 3 -12 -8 8 20 25 32 24 32 3 27 22 22 23 13 15 11 7 9 9 13 4 7 7 10 13 11 8 1 5 -4
-1 -9 -12 1 12 22 5 13 10 10 7 32 44 -16 2 25 37 34 8 -13 -7 -27 25 29 12 18 16 17 8 14 13 9 11 6 9 5 10 16 20 10 6 11 12 -2
19 15 12 10 16 15 4 6 13 15 12 -1 5 28 -46 -38 -23 -19 -14 11 4 19 8 22 19 16 20 14 11 9 14 7 8 4 8 7 10 10 9 6 10 6 3 15
5 17 31 32 18 0 26 6 -18 13 -1 -17 20 12 -19 7 -6 12 -12 -8 18 23 16 17 20 19 24 14 16 8 11 5 6 4 5 7 10 9 8 11 12 -3 4 6
13 13 9 7 2 3 26 17 15 -20 9 21 -3 -5 -5 48 42 50 39 31 2 3 34 8 3 19 21 18 16 10 7 5 7 2 5 7 11 13 14 6 8 1 10 11
11 2 21 20 1 4 -22 16 6 11 12 10 16 -6 -30 -28 -4 2 1 6 8 16 30 21 14 16 13 25 13 11 5 7 9 4 4 7 11 10 9 9 2 10 6 6
11 1 3 10 23 20 29 -8 -3 0 -9 -4 10 -6 10 3 12 18 15 27 -11 -4 36 35 19 13 17 25 11 9 5 8 9 6 7 8 11 18 11 4 -4 14 5 3
9 9 7 -15 4 8 1 6 16 -30 20 16 -1 -10 5 11 23 15 2 5 -13 1 1 43 19 1 21 22 16 10 4 3 6 5 6 8 13 11 15 2 10 6 4 2
14 12 11 29 21 29 8 8 19 9 6 -3 -23 -29 -21 13 15 17 8 39 4 4 -1 46 13 13 21 19 12 6 4 4 5 7 8 10 13 4 12 8 7 5 3 2
-8 6 -15 -35 -31 -32 -12 -0 19 29 -7 2 -1 -3 14 -9 -13 -7 10 6 23 -5 33 34 15 10 21 14 17 7 5 4 6 9 10 10 8 9 9 7 5 4 3 2
13 0 11 6 2 4 25 11 15 50 7 -2 -9 6 -1 17 8 24 -9 20 -2 20 38 32 20 6 17 13 11 10 8 7 8 10 9 7 9 9 8 6 5 4 3 3
11 0 -2 -4 34 16 6 35 11 40 43 34 39 18 27 28 36 32 19 11 17 30 27 27 15 5 11 26 18 11 9 10 10 13 7 8 11 7 6 6 4 3 3 4
1 3 -3 16 1 31 53 -5 21 22 25 25 26 30 2 28 15 7 7 23 22 25 27 18 14 17 14 17 10 12 8 8 5 12 5 7 8 7 6 4 4 4 3 7
-7 6 7 -13 48 21 -43 -1 20 37 28 35 29 31 16 7 13 30 32 26 29 31 29 25 26 24 18 13 10 8 8 12 3 6 11 10 7 6 5 4 4 5 10 9
10 -2 -6 4 -7 -4 17 -13 16 16 -7 29 15 13 17 15 19 66 19 29 32 28 25 19 13 10 9 8 8 8 7 9 10 10 9 7 5 5 5 6 8 11 6 10
33 16 1 -15 9 8 -24 13 25 5 3 -1 21 14 20 23 20 3 0 21 14 9 8 7 5 6 6 6 7 8 10 11 9 6 5 6 6 8 8 10 9 7 8 8
13 21 10 16 -9 13 11 9 17 22 -13 17 4 2 12 22 18 18 14 3 12 5 7 5 6 9 10 13 12 10 8 7 6 7 8 10 8 9 8 6 8 8 10 7
8 7 27 34 8 17 -4 15 18 7 -4 39 10 6 4 6 15 12 9 9 3 11 7 4 8 4 6 7 10 9 8 9 10 8 9 8 7 8 8 8 9 8 7 7
7 -12 5 -7 -0 -9 1 -0 8 5 13 19 4 9 20 -6 -1 22 12 9 -3 -1 13 9 9 11 11 8 9 7 11 11 8 7 6 8 8 7 8 8 7 7 7 7
31 2 -11 6 5 -3 5 7 11 7 5 -2 33 31 -11 -4 -6 -12 7 9 12 12 10 8 7 7 8 9 6 4 6 6 6 7 8 7 7 8 8 7 7 6 7 7
9 8 11 11 9 8 16 33 14 14 19 6 22 33 32 11 7 1 13 3 3 9 10 9 9 7 6 11 10 7 6 7 7 7 7 7 9 8 7 6 7 7 7 7
11 -5 4 10 6 0 8 20 -1 8 8 -6 23 17 13 14 17 23 3 12 13 11 10 9 8 6 8 7 6 5 7 7 7 8 8 8 8 7 7 7 7 7 7 7
Height
3056 3059 3060 3064 3066 3067 3067 3068 3067 3067 3065 3062 3056 3050 3052 3053 3051 3051 3053 3054 3056 3059 3063 3065 3069 3073 3077 3081 3086 3091 3094 3097 3099 3100 3100 3102 3102 3103 3105 3106 3106 3107 3107 3107
3055 3053 3057 3059 3061 3062 3064 3063 3063 3061 3060 3057 3051 3034 3042 3042 3040 3042 3043 3044 3045 3048 3051 3055 3059 3063 3066 3071 3076 3080 3085 3089 3092 3092 3094 3094 3095 3097 3098 3099 3100 3102 3102 3103
3049 3051 3052 3054 3057 3058 3059 3059 3060 3059 3057 3052 3047 3025 3029 3026 3028 3031 3032 3032 3034 3036 3040 3044 3047 3051 3055 3059 3065 3071 3076 3081 3084 3085 3086 3088 3090 3091 3092 3092 3094 3096 3098 3098
3046 3047 3048 3051 3053 3056 3056 3054 3054 3054 3055 3053 3048 3028 3022 3021 3021 3020 3022 3023 3024 3026 3027 3031 3035 3039 3043 3048 3055 3061 3066 3072 3075 3078 3080 3083 3084 3084 3086 3087 3089 3091 3093 3094
3043 3042 3044 3046 3048 3051 3051 3049 3051 3052 3051 3047 3043 3045 3003 3012 3008 3010 3011 3011 3012 3013 3015 3017 3022 3027 3032 3038 3043 3051 3056 3062 3067 3071 3074 3076 3076 3077 3079 3082 3084 3086 3088 3089
3039 3040 3041 3043 3045 3046 3047 3047 3048 3049 3048 3039 3030 3034 2996 3006 3004 3004 3005 3006 3007 3007 3006 3007 3011 3013 3018 3025 3032 3039 3046 3053 3058 3063 3066 3068 3070 3072 3074 3077 3079 3081 3083 3085
3035 3035 3036 3038 3041 3042 3043 3045 3045 3043 3042 3026 3023 3022 2991 2998 2997 2998 2999 3000 3000 2998 2997 2997 3000 3003 3008 3012 3021 3030 3037 3044 3050 3056 3059 3061 3063 3065 3069 3071 3075 3077 3079 3080
3033 3033 3032 3032 3033 3037 3036 3041 3039 3032 3026 3018 3019 3004 2989 2991 2987 2988 2990 2991 2991 2990 2990 2989 2991 2995 2998 3004 3012 3021 3030 3037 3044 3049 3053 3055 3057 3060 3063 3066 3069 3072 3074 3075
3029 3029 3028 3029 3030 3033 3034 3034 3037 3035 3030 3023 3007 2993 2984 2986 2984 2982 2982 2981 2981 2982 2981 2983 2983 2985 2991 2996 3004 3014 3024 3031 3037 3043 3047 3050 3052 3055 3058 3061 3064 3068 3069 3071
3026 3027 3024 3025 3026 3027 3028 3031 3032 3032 3025 3007 2991 2985 2981 2981 2982 2980 2978 2976 2975 2975 2973 2974 2977 2978 2983 2990 2999 3008 3017 3025 3031 3037 3040 3044 3048 3050 3053 3058 3061 3063 3065 3066
3022 3025 3023 3020 3018 3017 3022 3022 3023 3023 3018 3004 2991 2969 2976 2976 2976 2975 2971 2970 2968 2967 2965 2965 2969 2972 2977 2984 2992 3002 3010 3019 3026 3031 3036 3039 3043 3046 3050 3053 3056 3058 3060 3061
3018 3020 3016 3012 3013 3014 3014 3013 3014 3013 3003 2997 2992 2956 2971 2969 2969 2968 2967 2966 2965 2962 2959 2959 2964 2967 2972 2978 2987 2997 3006 3014 3020 3027 3030 3035 3038 3042 3045 3049 3051 3054 3055 3056
3015 3015 3013 3007 3009 3007 3005 3003 3003 2997 2996 2980 2985 2961 2962 2963 2963 2963 2961 2960 2959 2957 2953 2952 2958 2963 2968 2975 2983 2992 3001 3010 3017 3022 3026 3030 3034 3039 3042 3045 3047 3049 3050 3051
3012 3009 3007 3002 3000 3005 2999 2994 2990 2988 2984 2969 2965 2955 2960 2962 2960 2958 2956 2953 2952 2950 2945 2947 2952 2959 2965 2972 2981 2991 2999 3007 3013 3018 3023 3027 3032 3035 3038 3040 3043 3044 3045 3045
3007 3003 3001 2997 2995 2994 2989 2981 2976 2974 2967 2967 2946 2956 2953 2953 2949 2948 2947 2946 2945 2941 2940 2943 2948 2955 2963 2971 2979 2988 2996 3004 3010 3015 3020 3024 3028 3032 3035 3037 3039 3039 3040 3039
3002 3000 2997 2990 2989 2986 2979 2975 2969 2962 2956 2953 2951 2947 2947 2946 2942 2940 2939 2937 2935 2935 2939 2942 2947 2955 2963 2970 2979 2987 2995 3002 3008 3013 3018 3022 3026 3029 3032 3033 3034 3034 3033 3032
2999 2998 2997 2986 2986 2980 2975 2971 2965 2958 2953 2950 2947 2944 2943 2942 2940 2937 2935 2932 2933 2935 2938 2941 2947 2954 2963 2972 2981 2989 2996 3002 3008 3012 3016 3020 3023 3026 3028 3029 3029 3028 3027 3026
2995 2997 2997 2989 2985 2975 2973 2969 2962 2956 2951 2947 2944 2944 2944 2943 2939 2935 2933 2933 2934 2936 2938 2943 2949 2958 2967 2976 2984 2990 2996 3001 3006 3010 3014 3017 3020 3022 3024 3024 3023 3022 3021 3018
2992 2995 2996 2992 2986 2975 2970 2967 2962 2958 2954 2949 2947 2946 2945 2942 2939 2933 2938 2939 2940 2942 2946 2951 2958 2966 2973 2980 2986 2991 2996 3000 3004 3008 3011 3014 3017 3018 3019 3018 3017 3016 3014 3011
2988 2992 2994 2991 2988 2976 2970 2967 2963 2959 2957 2953 2950 2950 2948 2945 2946 2944 2945 2947 2949 2951 2955 2959 2963 2970 2976 2981 2986 2991 2995 2999 3003 3007 3010 3012 3013 3014 3013 3013 3012 3010 3008 3005
2985 2987 2987 2988 2988 2975 2970 2967 2963 2961 2964 2956 2954 2953 2952 2951 2951 2950 2952 2953 2955 2960 2962 2965 2970 2975 2980 2984 2988 2992 2996 2999 3003 3006 3007 3008 3009 3009 3008 3008 3007 3005 3002 2999
2982 2983 2981 2983 2983 2976 2969 2968 2967 2966 2961 2958 2956 2956 2955 2956 2956 2956 2958 2960 2962 2965 2967 2971 2974 2978 2981 2984 2988 2993 2996 2999 3001 3003 3004 3004 3005 3005 3005 3004 3001 2998 2995 2992
2980 2978 2978 2977 2972 2970 2968 2967 2965 2964 2962 2960 2960 2957 2957 2958 2960 2960 2963 2965 2966 2967 2970 2972 2976 2979 2982 2986 2990 2994 2996 2998 2999 3000 3001 3001 3002 3001 3000 2997 2995 2992 2989 2985
2973 2974 2973 2972 2970 2968 2967 2965 2965 2963 2961 2958 2955 2957 2959 2961 2962 2965 2966 2967 2970 2971 2973 2976 2978 2981 2985 2987 2990 2992 2994 2996 2997 2998 2998 2999 2998 2996 2995 2992 2990 2986 2983 2978
2972 2971 2970 2968 2968 2967 2964 2963 2963 2962 2961 2958 2956 2955 2957 2961 2964 2966 2967 2969 2972 2974 2976 2978 2980 2983 2985 2988 2989 2991 2992 2994 2995 2996 2996 2995 2994 2992 2990 2988 2984 2980 2976 2971
2967 2968 2968 2967 2967 2966 2964 2963 2962 2962 2962 2959 2958 2958 2960 2962 2964 2967 2969 2971 2973 2976 2978 2979 2981 2984 2986 2987 2989 2990 2992 2993 2994 2993 2993 2991 2990 2988 2985 2982 2978 2974 2969 2963